Weather History for Chignik, AK

Change the Weather History Date:

Monday, January 13, 2014

  Actual Average Record
Temperature  
Mean Temperature 36 °F -  
Max Temperature 39 °F 33 °F 51 °F (2013)
Min Temperature 32 °F 26 °F 14 °F (2000)
Degree Days  
Heating Degree Days 30    
Moisture  
Dew Point 30 °F    
Average Humidity 81    
Maximum Humidity 100    
Minimum Humidity 56    
Precipitation  
Precipitation 0.58 in - - ()
Sea Level Pressure  
Sea Level Pressure 29.08 in    
Wind  
Wind Speed 11 mph (East)    
Max Wind Speed 23 mph    
Max Gust Speed 36 mph    
Visibility 7 miles    
Events      
Averages and records for this station are not official NWS values.
T = Trace of Precipitation, MM = Missing Value Source: NWS Daily Summary

Daily Weather History Graph

Daily Weather History Graph

Search for Another Location

Airport:

Trip Planner

Search our weather history database for the weather conditions in past years. The results will help you decide how hot, cold, wet, or windy it might be!

Date:

Astronomy

Jan. 13, 2014 Rise Set
Actual Time 9:58 AM AKST 5:26 PM AKST
Civil Twilight 9:12 AM AKST 6:12 PM AKST
Nautical Twilight 8:24 AM AKST 7:00 PM AKST
Astronomical Twilight 7:39 AM AKST 7:45 PM AKST
Moon 3:55 PM AKST (1/13) 7:52 AM AKST (1/13)
Length of Visible Light 8h 59m
Length of Day
7h 28m
Waxing Gibbous, 95% of the Moon is Illuminated
Jan 13
Waxing Gibbous
Jan 15
Full
Jan 23
Last Quarter
Jan 30
New
Feb 6
First Quarter

Hourly Weather History & Observations

Time (AKST) Temp. Windchill Dew Point Humidity Pressure Visibility Wind Dir Wind Speed Gust Speed Precip Events Conditions
12:16 AM 37.4 °F 28.9 °F 30.2 °F 75% 29.38 in 10.0 mi South 13.8 mph 18.4 mph N/A   Overcast
12:36 AM 39.2 °F 30.8 °F 28.4 °F 65% 29.38 in 10.0 mi SSE 15.0 mph 21.9 mph N/A   Scattered Clouds
12:56 AM 39.2 °F 29.3 °F 26.6 °F 61% 29.38 in 10.0 mi SW 20.7 mph 35.7 mph 0.01 in   Scattered Clouds
1:16 AM 39.2 °F 30.8 °F 24.8 °F 56% 29.38 in 10.0 mi SW 15.0 mph 26.5 mph N/A   Scattered Clouds
1:36 AM 39.2 °F 29.3 °F 24.8 °F 56% 29.38 in 10.0 mi SW 20.7 mph 25.3 mph N/A   Clear
1:56 AM 39.2 °F 30.8 °F 26.6 °F 61% 29.38 in 10.0 mi SSW 15.0 mph 21.9 mph N/A   Clear
2:16 AM 39.2 °F 30.5 °F 26.6 °F 61% 29.38 in 10.0 mi SW 16.1 mph 25.3 mph N/A   Clear
2:36 AM 39.2 °F 31.6 °F 24.8 °F 56% 29.38 in 10.0 mi South 12.7 mph - N/A   Partly Cloudy
2:56 AM 39.2 °F 32.5 °F 26.6 °F 61% 29.38 in 10.0 mi South 10.4 mph - N/A   Clear
3:16 AM 39.2 °F 32.5 °F 26.6 °F 61% 29.38 in 10.0 mi SSW 10.4 mph 16.1 mph N/A   Partly Cloudy
3:36 AM 39.2 °F 34.2 °F 26.6 °F 61% 29.38 in 10.0 mi ENE 6.9 mph - N/A   Mostly Cloudy
3:56 AM 39.2 °F 35.9 °F 26.6 °F 61% 29.38 in 10.0 mi SE 4.6 mph - N/A   Mostly Cloudy
4:16 AM 37.4 °F 32.1 °F 24.8 °F 60% 29.38 in 10.0 mi South 6.9 mph - N/A   Partly Cloudy
4:36 AM 39.2 °F 33.0 °F 24.8 °F 56% 29.37 in 10.0 mi South 9.2 mph - N/A   Clear
4:56 AM 37.4 °F 33.8 °F 24.8 °F 60% 29.37 in 10.0 mi ENE 4.6 mph - N/A   Clear
5:16 AM 37.4 °F 34.9 °F 26.6 °F 65% 29.37 in 10.0 mi North 3.5 mph - N/A   Clear
5:36 AM 37.4 °F - 24.8 °F 60% 29.36 in 10.0 mi Calm Calm - N/A   Clear
5:56 AM 35.6 °F 31.7 °F 30.2 °F 81% 29.36 in 10.0 mi ENE 4.6 mph - N/A   Clear
6:16 AM 37.4 °F - 28.4 °F 70% 29.35 in 10.0 mi Calm Calm - N/A   Clear
6:36 AM 37.4 °F - 26.6 °F 65% 29.33 in 10.0 mi Calm Calm - N/A   Partly Cloudy
6:56 AM 35.6 °F - 28.4 °F 75% 29.32 in 10.0 mi Calm Calm - N/A   Scattered Clouds
7:16 AM 35.6 °F - 26.6 °F 70% 29.31 in 10.0 mi Calm Calm - N/A   Overcast
7:36 AM 37.4 °F 31.4 °F 30.2 °F 75% 29.30 in 10.0 mi East 8.1 mph - N/A   Overcast
7:56 AM 37.4 °F 30.8 °F 30.2 °F 75% 29.28 in 10.0 mi SSE 9.2 mph - N/A   Overcast
8:16 AM 37.4 °F 30.8 °F 30.2 °F 75% 29.28 in 10.0 mi ESE 9.2 mph - N/A   Overcast
8:36 AM 37.4 °F 30.8 °F 32.0 °F 81% 29.29 in 10.0 mi SE 9.2 mph - N/A   Overcast
8:56 AM 37.4 °F 32.1 °F 32.0 °F 81% 29.28 in 10.0 mi ESE 6.9 mph - N/A   Overcast
9:16 AM 37.4 °F 30.8 °F 33.8 °F 87% 29.28 in 9.0 mi East 9.2 mph - N/A   Mostly Cloudy
9:36 AM 37.4 °F 32.1 °F 33.8 °F 87% 29.27 in 10.0 mi ESE 6.9 mph - N/A   Overcast
9:56 AM 35.6 °F 29.2 °F 32.0 °F 87% 29.26 in 10.0 mi East 8.1 mph - N/A   Mostly Cloudy
10:16 AM 35.6 °F 30.7 °F 30.2 °F 81% 29.24 in 10.0 mi East 5.8 mph - 0.01 in   Mostly Cloudy
10:36 AM 35.6 °F 30.7 °F 30.2 °F 81% 29.23 in 10.0 mi East 5.8 mph - 0.01 in   Mostly Cloudy
10:56 AM 37.4 °F 33.8 °F 32.0 °F 81% 29.22 in 10.0 mi ENE 4.6 mph - 0.01 in   Overcast
11:16 AM 33.8 °F 25.3 °F 26.6 °F 75% 29.20 in 4.0 mi East 11.5 mph 17.3 mph N/A   Overcast
11:36 AM 33.8 °F 27.0 °F 30.2 °F 87% 29.19 in 2.0 mi East 8.1 mph - N/A   Overcast
11:56 AM 33.8 °F 30.8 °F 28.4 °F 81% 29.15 in 10.0 mi East 3.5 mph - N/A   Mostly Cloudy
12:16 PM 33.8 °F 23.5 °F 28.4 °F 81% 29.16 in 2.5 mi ENE 16.1 mph 20.7 mph 0.01 in   Mostly Cloudy
12:36 PM 33.8 °F 25.3 °F 32.0 °F 93% 29.14 in 1.8 mi ENE 11.5 mph - 0.02 in   Overcast
12:56 PM 33.8 °F 25.8 °F 32.0 °F 93% 29.11 in 1.5 mi NE 10.4 mph - 0.02 in   Overcast
1:16 PM 33.8 °F 26.4 °F 32.0 °F 93% 29.09 in 1.2 mi ENE 9.2 mph - 0.01 in   Overcast
1:36 PM 33.8 °F 25.3 °F 32.0 °F 93% 29.07 in 1.0 mi NE 11.5 mph - 0.02 in   Overcast
1:56 PM 33.8 °F 23.2 °F 32.0 °F 93% 29.05 in 1.2 mi East 17.3 mph 25.3 mph 0.03 in   Overcast
2:16 PM 33.8 °F 23.2 °F 32.0 °F 93% 29.02 in 1.5 mi NE 17.3 mph 26.5 mph 0.01 in   Overcast
2:36 PM 33.8 °F 23.9 °F 32.0 °F 93% 28.99 in 1.2 mi ENE 15.0 mph 24.2 mph 0.02 in   Overcast
2:56 PM 33.8 °F 25.3 °F 30.2 °F 87% 28.97 in 1.5 mi ENE 11.5 mph 20.7 mph 0.02 in   Overcast
3:16 PM 33.8 °F 24.3 °F 32.0 °F 93% 28.95 in 3.0 mi NE 13.8 mph 26.5 mph 0.02 in   Overcast
3:36 PM 33.8 °F 23.2 °F 32.0 °F 93% 28.92 in 1.8 mi ENE 17.3 mph 27.6 mph 0.04 in   Overcast
3:56 PM 33.8 °F 26.4 °F 33.8 °F 100% 28.90 in 1.8 mi NE 9.2 mph 19.6 mph 0.06 in   Overcast
4:16 PM 33.8 °F 26.4 °F 32.0 °F 93% 28.89 in 1.0 mi ENE 9.2 mph - N/A   Overcast
4:36 PM 32.0 °F 24.8 °F 32.0 °F 100% 28.87 in 0.8 mi NE 8.1 mph - N/A   Overcast
4:56 PM 32.0 °F - 32.0 °F 100% 28.86 in 0.8 mi Calm Calm - N/A   Overcast
5:16 PM 32.0 °F 27.5 °F 32.0 °F 100% 28.84 in 0.8 mi North 4.6 mph - N/A   Overcast
5:36 PM 33.8 °F 25.3 °F 33.8 °F 100% 28.82 in 2.0 mi NNE 11.5 mph 17.3 mph N/A   Overcast
6:36 PM 33.8 °F 21.6 °F 33.8 °F 100% 28.73 in 5.0 mi NE 23.0 mph 35.7 mph N/A   Overcast
6:56 PM 33.8 °F 22.2 °F 33.8 °F 100% 28.70 in 3.0 mi NE 20.7 mph 32.2 mph N/A   Overcast
7:16 PM 33.8 °F 22.5 °F 33.8 °F 100% 28.68 in 5.0 mi ENE 19.6 mph 28.8 mph N/A   Overcast
7:36 PM 33.8 °F 24.3 °F 32.0 °F 93% 28.67 in 3.0 mi NE 13.8 mph 24.2 mph N/A   Overcast
7:56 PM 33.8 °F 23.9 °F 32.0 °F 93% 28.65 in 4.0 mi NNE 15.0 mph 21.9 mph 0.16 in   Overcast
8:16 PM 35.6 °F 27.1 °F 33.8 °F 93% 28.63 in 5.0 mi ENE 12.7 mph 17.3 mph 0.08 in   Overcast
8:36 PM 33.8 °F 28.6 °F 33.8 °F 100% 28.63 in 8.0 mi ESE 5.8 mph - 0.13 in   Overcast
8:56 PM 33.8 °F 26.4 °F 32.0 °F 93% 28.64 in 3.0 mi West 9.2 mph - 0.16 in   Overcast
9:16 PM 33.8 °F 26.4 °F 32.0 °F 93% 28.64 in 3.0 mi West 9.2 mph - N/A   Scattered Clouds
9:36 PM 32.0 °F 26.4 °F 32.0 °F 100% 28.64 in 2.0 mi WSW 5.8 mph - N/A   Scattered Clouds
9:56 PM 32.0 °F 27.5 °F 32.0 °F 100% 28.64 in 2.5 mi WSW 4.6 mph - N/A   Clear
10:16 PM 33.8 °F 27.0 °F 32.0 °F 93% 28.64 in 9.0 mi WSW 8.1 mph - N/A   Mostly Cloudy
10:36 PM 33.8 °F 26.4 °F 32.0 °F 93% 28.64 in 10.0 mi WSW 9.2 mph - N/A   Mostly Cloudy
10:56 PM 35.6 °F 27.1 °F 30.2 °F 81% 28.64 in 10.0 mi WSW 12.7 mph - 0.02 in   Overcast
11:16 PM 35.6 °F 27.5 °F 30.2 °F 81% 28.65 in 10.0 mi West 11.5 mph - 0.03 in   Overcast
11:36 PM 35.6 °F 26.2 °F 30.2 °F 81% 28.65 in 10.0 mi SW 15.0 mph - 0.06 in   Mostly Cloudy
11:56 PM 35.6 °F 25.5 °F 30.2 °F 81% 28.67 in 10.0 mi WSW 17.3 mph 24.2 mph 0.09 in   Overcast